Time,TemperatureF,DewpointF,PressureIn,WindDirection,WindDirectionDegrees,WindSpeedMPH,WindSpeedGustMPH,Humidity,HourlyPrecipIn,Conditions,Clouds,dailyrainin,SoftwareType,DateUTC
2013-03-13 00:00:00,20.9,18.4,29.84,NW,317,1.0,3.0,90,0.00,,OVC055,0.00,VWS V14.01,2013-03-13 04:00:00,
2013-03-13 00:05:00,21.0,18.5,29.84,NW,315,3.0,3.0,90,0.00,,OVC055,0.00,VWS V14.01,2013-03-13 04:05:00,
2013-03-13 00:10:00,21.0,18.3,29.84,NW,313,4.0,5.0,89,0.00,,OVC065,0.00,VWS V14.01,2013-03-13 04:10:00,
2013-03-13 00:15:00,21.0,18.3,29.84,NNW,329,2.0,3.0,89,0.00,,OVC065,0.00,VWS V14.01,2013-03-13 04:15:00,
2013-03-13 00:20:00,21.0,18.3,29.85,NW,319,4.0,4.0,89,0.00,,OVC065,0.00,VWS V14.01,2013-03-13 04:20:00,
2013-03-13 00:25:00,21.0,18.5,29.84,West,275,2.0,3.0,90,0.00,,OVC065,0.00,VWS V14.01,2013-03-13 04:25:00,
2013-03-13 00:30:00,21.1,18.6,29.84,NNW,337,4.0,4.0,90,0.00,,OVC065,0.00,VWS V14.01,2013-03-13 04:30:00,
2013-03-13 00:35:00,21.2,18.7,29.84,NW,310,4.0,6.0,90,0.00,,OVC065,0.00,VWS V14.01,2013-03-13 04:35:00,
2013-03-13 00:40:00,21.3,18.8,29.84,WNW,292,2.0,5.0,90,0.00,,OVC065,0.00,VWS V14.01,2013-03-13 04:40:00,
2013-03-13 00:45:00,21.2,18.7,29.84,WNW,296,3.0,4.0,90,0.00,,OVC065,0.00,VWS V14.01,2013-03-13 04:45:00,
2013-03-13 00:50:00,21.1,18.6,29.84,WNW,303,3.0,3.0,90,0.00,,OVC065,0.00,VWS V14.01,2013-03-13 04:50:00,
2013-03-13 00:55:00,21.1,18.6,29.84,NNW,328,3.0,5.0,90,0.00,,OVC065,0.00,VWS V14.01,2013-03-13 04:55:00,
2013-03-13 01:00:00,21.1,18.6,29.84,NW,307,2.0,2.0,90,0.00,,OVC065,0.00,VWS V14.01,2013-03-13 05:00:00,
2013-03-13 01:05:00,21.1,18.6,29.84,NNW,333,3.0,4.0,90,0.00,,OVC065,0.00,VWS V14.01,2013-03-13 05:05:00,
2013-03-13 01:10:00,21.1,18.6,29.84,NW,315,1.0,3.0,90,0.00,,OVC060,0.00,VWS V14.01,2013-03-13 05:10:00,
2013-03-13 01:15:00,21.1,18.9,29.84,WNW,294,6.0,6.0,91,0.00,,OVC060,0.00,VWS V14.01,2013-03-13 05:15:00,
2013-03-13 01:20:00,21.1,18.9,29.84,NW,315,3.0,3.0,91,0.00,,,0.00,VWS V14.01,2013-03-13 05:20:00,
2013-03-13 01:25:00,21.1,18.9,29.84,West,269,2.0,4.0,91,0.00,,,0.00,VWS V14.01,2013-03-13 05:25:00,
2013-03-13 01:30:00,21.2,19.0,29.84,NNW,336,3.0,3.0,91,0.00,,,0.00,VWS V14.01,2013-03-13 05:30:00,
2013-03-13 01:35:00,21.2,18.7,29.84,NW,313,2.0,3.0,90,0.00,,,0.00,VWS V14.01,2013-03-13 05:35:00,
2013-03-13 01:40:00,21.2,18.5,29.84,West,269,2.0,6.0,89,0.00,,,0.00,VWS V14.01,2013-03-13 05:40:00,
2013-03-13 01:45:00,21.2,18.2,29.84,NW,310,8.0,8.0,88,0.00,,,0.00,VWS V14.01,2013-03-13 05:45:00,
2013-03-13 01:50:00,21.2,18.2,29.84,NNW,330,5.0,5.0,88,0.00,,,0.00,VWS V14.01,2013-03-13 05:50:00,
2013-03-13 01:55:00,21.1,18.4,29.84,NW,319,5.0,9.0,89,0.00,,,0.00,VWS V14.01,2013-03-13 05:55:00,
2013-03-13 02:01:00,21.0,18.3,29.84,NW,307,3.0,5.0,89,0.00,,,0.00,VWS V14.01,2013-03-13 06:01:00,
2013-03-13 02:06:00,21.0,18.5,29.84,WNW,301,4.0,8.0,90,0.00,,,0.00,VWS V14.01,2013-03-13 06:06:00,
2013-03-13 02:11:00,20.9,18.4,29.84,NNW,329,3.0,5.0,90,0.00,,,0.00,VWS V14.01,2013-03-13 06:11:00,
2013-03-13 02:16:00,20.8,18.3,29.84,NW,319,3.0,6.0,90,0.00,,,0.00,VWS V14.01,2013-03-13 06:16:00,
2013-03-13 02:21:00,20.7,18.2,29.84,NW,312,6.0,6.0,90,0.00,,,0.00,VWS V14.01,2013-03-13 06:21:00,
2013-03-13 02:26:00,20.7,18.2,29.84,NNW,330,3.0,7.0,90,0.00,,,0.00,VWS V14.01,2013-03-13 06:26:00,
2013-03-13 02:31:00,20.7,18.2,29.84,NNW,334,5.0,7.0,90,0.00,,,0.00,VWS V14.01,2013-03-13 06:31:00,
2013-03-13 02:36:00,20.8,18.3,29.84,North,350,7.0,10.0,90,0.00,,,0.00,VWS V14.01,2013-03-13 06:36:00,
2013-03-13 02:41:00,20.8,18.3,29.84,North,353,4.0,7.0,90,0.00,,,0.00,VWS V14.01,2013-03-13 06:41:00,
2013-03-13 02:46:00,20.8,18.3,29.85,NNW,339,3.0,6.0,90,0.00,,,0.00,VWS V14.01,2013-03-13 06:46:00,
2013-03-13 02:51:00,20.7,18.2,29.85,NNW,328,11.0,11.0,90,0.00,,,0.00,VWS V14.01,2013-03-13 06:51:00,
2013-03-13 02:56:00,20.6,17.9,29.85,NW,319,6.0,10.0,89,0.00,,,0.00,VWS V14.01,2013-03-13 06:56:00,
2013-03-13 03:01:00,20.5,18.0,29.85,NNW,348,9.0,10.0,90,0.00,,,0.00,VWS V14.01,2013-03-13 07:01:00,
2013-03-13 03:06:00,20.3,17.6,29.85,NNE,17,5.0,7.0,89,0.00,,,0.00,VWS V14.01,2013-03-13 07:06:00,
2013-03-13 03:11:00,20.1,17.4,29.85,NW,325,7.0,9.0,89,0.00,,,0.00,VWS V14.01,2013-03-13 07:11:00,
2013-03-13 03:16:00,20.0,17.3,29.85,NW,325,7.0,10.0,89,0.00,,,0.00,VWS V14.01,2013-03-13 07:16:00,
2013-03-13 03:21:00,19.9,17.2,29.85,North,357,6.0,7.0,89,0.00,,,0.00,VWS V14.01,2013-03-13 07:21:00,
2013-03-13 03:26:00,19.9,16.7,29.85,NW,322,3.0,8.0,87,0.00,,,0.00,VWS V14.01,2013-03-13 07:26:00,
2013-03-13 03:31:00,20.0,16.8,29.85,NNW,343,2.0,5.0,87,0.00,,,0.00,VWS V14.01,2013-03-13 07:31:00,
2013-03-13 03:36:00,20.0,16.8,29.85,NNW,339,7.0,9.0,87,0.00,,,0.00,VWS V14.01,2013-03-13 07:36:00,
2013-03-13 03:42:00,20.0,16.5,29.85,NW,317,4.0,6.0,86,0.00,,,0.00,VWS V14.01,2013-03-13 07:42:00,
2013-03-13 03:47:00,19.9,16.4,29.85,WNW,290,5.0,6.0,86,0.00,,,0.00,VWS V14.01,2013-03-13 07:47:00,
2013-03-13 03:52:00,19.8,16.6,29.85,NNW,340,4.0,5.0,87,0.00,,,0.00,VWS V14.01,2013-03-13 07:52:00,
2013-03-13 03:57:00,19.8,16.6,29.85,NW,326,6.0,6.0,87,0.00,,,0.00,VWS V14.01,2013-03-13 07:57:00,
2013-03-13 04:02:00,19.8,16.6,29.85,NNW,338,2.0,5.0,87,0.00,,,0.00,VWS V14.01,2013-03-13 08:02:00,
2013-03-13 04:08:00,19.7,16.7,29.85,NNW,335,3.0,7.0,88,0.00,,,0.00,VWS V14.01,2013-03-13 08:08:00,
2013-03-13 04:13:00,19.7,16.7,29.86,NNW,335,5.0,7.0,88,0.00,,,0.00,VWS V14.01,2013-03-13 08:13:00,
2013-03-13 04:18:00,19.7,16.7,29.86,North,2,6.0,8.0,88,0.00,,,0.00,VWS V14.01,2013-03-13 08:18:00,
2013-03-13 04:23:00,19.7,16.7,29.86,NNW,331,7.0,9.0,88,0.00,,,0.00,VWS V14.01,2013-03-13 08:23:00,
2013-03-13 04:28:00,19.7,16.7,29.85,North,7,4.0,6.0,88,0.00,,,0.00,VWS V14.01,2013-03-13 08:28:00,
2013-03-13 04:33:00,19.7,16.7,29.85,NNW,347,6.0,8.0,88,0.00,,,0.00,VWS V14.01,2013-03-13 08:33:00,
2013-03-13 04:38:00,19.7,16.7,29.85,North,357,5.0,7.0,88,0.00,,,0.00,VWS V14.01,2013-03-13 08:38:00,
2013-03-13 04:43:00,19.6,16.6,29.85,NW,321,7.0,7.0,88,0.00,,,0.00,VWS V14.01,2013-03-13 08:43:00,
2013-03-13 04:48:00,19.5,16.8,29.86,NNW,332,6.0,7.0,89,0.00,,,0.00,VWS V14.01,2013-03-13 08:48:00,
2013-03-13 04:53:00,19.5,16.8,29.86,North,357,3.0,4.0,89,0.00,,,0.00,VWS V14.01,2013-03-13 08:53:00,
2013-03-13 04:58:00,19.3,16.6,29.86,North,7,5.0,8.0,89,0.00,,,0.00,VWS V14.01,2013-03-13 08:58:00,
2013-03-13 05:03:00,19.2,16.5,29.86,North,350,6.0,8.0,89,0.00,,,0.00,VWS V14.01,2013-03-13 09:03:00,
2013-03-13 05:08:00,19.1,16.4,29.86,NNE,18,6.0,6.0,89,0.00,,,0.00,VWS V14.01,2013-03-13 09:08:00,
2013-03-13 05:13:00,18.9,16.2,29.86,North,7,5.0,8.0,89,0.00,,,0.00,VWS V14.01,2013-03-13 09:13:00,
2013-03-13 05:18:00,18.8,15.8,29.87,North,7,9.0,10.0,88,0.00,,,0.00,VWS V14.01,2013-03-13 09:18:00,
2013-03-13 05:23:00,18.6,15.1,29.87,NNE,15,3.0,7.0,86,0.00,,,0.00,VWS V14.01,2013-03-13 09:23:00,
2013-03-13 05:28:00,18.3,14.8,29.87,North,2,11.0,13.0,86,0.00,,,0.00,VWS V14.01,2013-03-13 09:28:00,
2013-03-13 05:33:00,18.0,14.8,29.88,NNW,346,5.0,5.0,87,0.00,,,0.00,VWS V14.01,2013-03-13 09:33:00,
2013-03-13 05:39:00,17.7,14.5,29.88,NNW,346,17.0,17.0,87,0.00,,,0.00,VWS V14.01,2013-03-13 09:39:00,
2013-03-13 05:44:00,17.7,14.8,29.88,North,357,12.0,12.0,88,0.00,,,0.00,VWS V14.01,2013-03-13 09:44:00,
2013-03-13 05:49:00,17.7,14.5,29.88,North,350,9.0,11.0,87,0.00,,,0.00,VWS V14.01,2013-03-13 09:49:00,
2013-03-13 05:54:00,17.6,14.4,29.89,NNE,12,8.0,10.0,87,0.00,,,0.00,VWS V14.01,2013-03-13 09:54:00,
2013-03-13 05:59:00,17.5,14.0,29.89,NNE,22,6.0,8.0,86,0.00,,,0.00,VWS V14.01,2013-03-13 09:59:00,
2013-03-13 06:04:00,17.5,13.8,29.89,NNW,347,10.0,10.0,85,0.00,,,0.00,VWS V14.01,2013-03-13 10:04:00,
2013-03-13 06:09:00,17.5,14.0,29.89,North,7,7.0,11.0,86,0.00,,OVC032,0.00,VWS V14.01,2013-03-13 10:09:00,
2013-03-13 06:14:00,17.5,13.8,29.90,NNW,347,11.0,14.0,85,0.00,,OVC032,0.00,VWS V14.01,2013-03-13 10:14:00,
2013-03-13 06:19:00,17.4,13.7,29.90,North,7,5.0,6.0,85,0.00,,OVC032,0.00,VWS V14.01,2013-03-13 10:19:00,
2013-03-13 06:24:00,17.4,13.7,29.90,NNE,21,11.0,11.0,85,0.00,,OVC032,0.00,VWS V14.01,2013-03-13 10:24:00,
2013-03-13 06:29:00,17.4,13.7,29.90,North,357,9.0,11.0,85,0.00,,OVC032,0.00,VWS V14.01,2013-03-13 10:29:00,
2013-03-13 06:34:00,17.3,13.8,29.91,NNW,340,8.0,10.0,86,0.00,,OVC032,0.00,VWS V14.01,2013-03-13 10:34:00,
2013-03-13 06:39:00,17.2,13.7,29.91,North,357,7.0,13.0,86,0.00,,OVC032,0.00,VWS V14.01,2013-03-13 10:39:00,
2013-03-13 06:44:00,17.2,13.5,29.91,North,7,8.0,8.0,85,0.00,,OVC032,0.00,VWS V14.01,2013-03-13 10:44:00,
2013-03-13 06:49:00,17.2,13.5,29.91,NNE,17,6.0,10.0,85,0.00,,OVC032,0.00,VWS V14.01,2013-03-13 10:49:00,
2013-03-13 06:54:00,17.1,13.6,29.91,North,7,7.0,8.0,86,0.00,,OVC032,0.00,VWS V14.01,2013-03-13 10:54:00,
2013-03-13 06:59:00,17.0,13.5,29.92,NNE,24,5.0,5.0,86,0.00,,OVC032,0.00,VWS V14.01,2013-03-13 10:59:00,
2013-03-13 07:04:00,17.0,13.8,29.92,NNW,329,2.0,3.0,87,0.00,,,0.00,VWS V14.01,2013-03-13 11:04:00,
2013-03-13 07:09:00,17.0,13.8,29.92,NW,325,7.0,8.0,87,0.00,,,0.00,VWS V14.01,2013-03-13 11:09:00,
2013-03-13 07:14:00,17.1,13.9,29.92,North,352,7.0,7.0,87,0.00,,,0.00,VWS V14.01,2013-03-13 11:14:00,
2013-03-13 07:19:00,17.1,13.9,29.92,NNE,16,8.0,8.0,87,0.00,,,0.00,VWS V14.01,2013-03-13 11:19:00,
2013-03-13 07:24:00,17.0,13.8,29.93,NNE,13,7.0,7.0,87,0.00,,,0.00,VWS V14.01,2013-03-13 11:24:00,
2013-03-13 07:29:00,16.9,14.0,29.93,NNE,25,3.0,6.0,88,0.00,,,0.00,VWS V14.01,2013-03-13 11:29:00,
2013-03-13 07:34:00,16.9,14.0,29.93,NNE,19,7.0,8.0,88,0.00,,,0.00,VWS V14.01,2013-03-13 11:34:00,
2013-03-13 07:39:00,16.9,13.4,29.93,NNW,346,9.0,11.0,86,0.00,,,0.00,VWS V14.01,2013-03-13 11:39:00,
2013-03-13 07:44:00,16.9,13.4,29.93,NNE,13,4.0,5.0,86,0.00,,,0.00,VWS V14.01,2013-03-13 11:44:00,
2013-03-13 07:49:00,16.8,13.6,29.93,NNE,18,9.0,9.0,87,0.00,,,0.00,VWS V14.01,2013-03-13 11:49:00,
2013-03-13 07:54:00,16.7,13.5,29.94,North,2,3.0,3.0,87,0.00,,,0.00,VWS V14.01,2013-03-13 11:54:00,
2013-03-13 07:59:00,16.6,13.7,29.94,NNE,22,5.0,8.0,88,0.00,,,0.00,VWS V14.01,2013-03-13 11:59:00,
2013-03-13 08:04:00,16.6,13.7,29.94,North,7,4.0,5.0,88,0.00,,,0.00,VWS V14.01,2013-03-13 12:04:00,
2013-03-13 08:09:00,16.6,13.9,29.94,North,7,4.0,5.0,89,0.00,,,0.00,VWS V14.01,2013-03-13 12:09:00,
2013-03-13 08:14:00,16.6,13.9,29.95,North,349,6.0,7.0,89,0.00,,,0.00,VWS V14.01,2013-03-13 12:14:00,
2013-03-13 08:19:00,16.7,14.0,29.95,NNW,344,4.0,4.0,89,0.00,,,0.00,VWS V14.01,2013-03-13 12:19:00,
2013-03-13 08:24:00,16.7,14.0,29.95,NNE,13,4.0,5.0,89,0.00,,,0.00,VWS V14.01,2013-03-13 12:24:00,
2013-03-13 08:29:00,16.8,14.1,29.95,NNE,15,5.0,5.0,89,0.00,,,0.00,VWS V14.01,2013-03-13 12:29:00,
2013-03-13 08:34:00,17.0,14.6,29.95,North,357,4.0,5.0,90,0.00,,,0.00,VWS V14.01,2013-03-13 12:34:00,
2013-03-13 08:39:00,17.2,14.8,29.95,NW,322,4.0,5.0,90,0.00,,,0.00,VWS V14.01,2013-03-13 12:39:00,
2013-03-13 08:44:00,17.5,15.1,29.95,NW,318,4.0,4.0,90,0.00,,,0.00,VWS V14.01,2013-03-13 12:44:00,
2013-03-13 08:49:00,17.7,15.3,29.95,NNE,17,6.0,6.0,90,0.00,,,0.00,VWS V14.01,2013-03-13 12:49:00,
2013-03-13 08:54:00,17.9,15.5,29.95,NNW,346,4.0,6.0,90,0.00,,,0.00,VWS V14.01,2013-03-13 12:54:00,
2013-03-13 08:59:00,18.1,15.7,29.96,NW,325,5.0,8.0,90,0.00,,,0.00,VWS V14.01,2013-03-13 12:59:00,
2013-03-13 09:04:00,18.2,15.8,29.96,NW,312,6.0,6.0,90,0.00,,,0.00,VWS V14.01,2013-03-13 13:04:00,
2013-03-13 09:09:00,18.4,15.7,29.96,NW,322,5.0,9.0,89,0.00,,,0.00,VWS V14.01,2013-03-13 13:09:00,
2013-03-13 09:14:00,18.5,15.6,29.96,North,353,7.0,10.0,88,0.00,,,0.00,VWS V14.01,2013-03-13 13:14:00,
2013-03-13 09:19:00,18.7,15.7,29.97,NW,322,9.0,9.0,88,0.00,,,0.00,VWS V14.01,2013-03-13 13:19:00,
2013-03-13 09:24:00,18.8,15.8,29.97,NW,314,8.0,8.0,88,0.00,,,0.00,VWS V14.01,2013-03-13 13:24:00,
2013-03-13 09:29:00,18.9,15.7,29.97,NNW,344,9.0,12.0,87,0.00,,,0.00,VWS V14.01,2013-03-13 13:29:00,
2013-03-13 09:34:00,19.0,15.5,29.97,NNW,341,7.0,12.0,86,0.00,,,0.00,VWS V14.01,2013-03-13 13:34:00,
2013-03-13 09:39:00,19.1,15.6,29.97,NNW,341,4.0,7.0,86,0.00,,,0.00,VWS V14.01,2013-03-13 13:39:00,
2013-03-13 09:44:00,19.2,15.7,29.98,North,357,9.0,9.0,86,0.00,,,0.00,VWS V14.01,2013-03-13 13:44:00,
2013-03-13 09:49:00,19.3,15.8,29.98,NW,323,7.0,12.0,86,0.00,,,0.00,VWS V14.01,2013-03-13 13:49:00,
2013-03-13 09:54:00,19.4,15.9,29.98,North,357,8.0,10.0,86,0.00,,,0.00,VWS V14.01,2013-03-13 13:54:00,
2013-03-13 09:59:00,19.4,15.9,29.98,NNW,340,9.0,12.0,86,0.00,,,0.00,VWS V14.01,2013-03-13 13:59:00,
2013-03-13 10:04:00,19.5,15.7,29.98,North,353,6.0,11.0,85,0.00,,,0.00,VWS V14.01,2013-03-13 14:04:00,
2013-03-13 10:09:00,19.7,15.9,29.98,North,351,8.0,11.0,85,0.00,,,0.00,VWS V14.01,2013-03-13 14:09:00,
2013-03-13 10:14:00,19.8,16.0,29.99,NNW,345,11.0,14.0,85,0.00,,,0.00,VWS V14.01,2013-03-13 14:14:00,
2013-03-13 10:19:00,19.9,15.9,29.99,North,350,11.0,15.0,84,0.00,,,0.00,VWS V14.01,2013-03-13 14:19:00,
2013-03-13 10:24:00,19.9,15.9,29.99,NW,315,6.0,8.0,84,0.00,,,0.00,VWS V14.01,2013-03-13 14:24:00,
2013-03-13 10:29:00,20.0,15.9,29.99,North,357,12.0,14.0,84,0.00,,,0.00,VWS V14.01,2013-03-13 14:29:00,
2013-03-13 10:34:00,20.1,16.3,29.99,North,349,12.0,16.0,85,0.00,,,0.00,VWS V14.01,2013-03-13 14:34:00,
2013-03-13 10:39:00,20.3,16.0,30.00,NW,319,5.0,11.0,83,0.00,,,0.00,VWS V14.01,2013-03-13 14:39:00,
2013-03-13 10:45:00,20.5,16.2,30.00,North,2,7.0,10.0,83,0.00,,,0.00,VWS V14.01,2013-03-13 14:45:00,
2013-03-13 10:50:00,20.5,15.9,30.00,NNW,344,7.0,11.0,82,0.00,,,0.00,VWS V14.01,2013-03-13 14:50:00,
2013-03-13 10:55:00,20.5,15.6,30.00,NNW,346,12.0,13.0,81,0.00,,,0.00,VWS V14.01,2013-03-13 14:55:00,
2013-03-13 11:00:00,20.6,15.4,30.00,NW,307,8.0,11.0,80,0.00,,,0.00,VWS V14.01,2013-03-13 15:00:00,
2013-03-13 11:05:00,20.6,15.1,30.01,WNW,297,6.0,10.0,79,0.00,,,0.00,VWS V14.01,2013-03-13 15:05:00,
2013-03-13 11:10:00,20.9,15.7,30.01,NNW,348,6.0,10.0,80,0.00,,OVC085,0.00,VWS V14.01,2013-03-13 15:10:00,
2013-03-13 11:15:00,20.9,15.4,30.02,North,7,9.0,11.0,79,0.00,,OVC085,0.00,VWS V14.01,2013-03-13 15:15:00,
2013-03-13 11:20:00,21.1,15.3,30.02,NW,319,2.0,7.0,78,0.00,,OVC085,0.00,VWS V14.01,2013-03-13 15:20:00,
2013-03-13 11:25:00,21.4,15.6,30.02,North,11,16.0,18.0,78,0.00,,OVC085,0.00,VWS V14.01,2013-03-13 15:25:00,
2013-03-13 11:30:00,21.2,15.1,30.02,North,351,8.0,11.0,77,0.00,,OVC085,0.00,VWS V14.01,2013-03-13 15:30:00,
2013-03-13 11:35:00,21.1,14.7,30.03,NNW,339,11.0,13.0,76,0.00,,OVC085,0.00,VWS V14.01,2013-03-13 15:35:00,
2013-03-13 11:40:00,21.1,15.3,30.02,North,2,5.0,10.0,78,0.00,,OVC085,0.00,VWS V14.01,2013-03-13 15:40:00,
2013-03-13 11:45:00,21.0,14.9,30.03,NW,305,8.0,15.0,77,0.00,,OVC085,0.00,VWS V14.01,2013-03-13 15:45:00,
2013-03-13 11:50:00,20.9,14.8,30.03,NNW,346,9.0,12.0,77,0.00,,OVC085,0.00,VWS V14.01,2013-03-13 15:50:00,
2013-03-13 11:55:00,20.9,14.8,30.03,NW,324,7.0,11.0,77,0.00,,BKN100,0.00,VWS V14.01,2013-03-13 15:55:00,
2013-03-13 12:00:00,21.3,15.2,30.03,NW,325,9.0,17.0,77,0.00,,BKN100,0.00,VWS V14.01,2013-03-13 16:00:00,
2013-03-13 12:05:00,21.2,14.8,30.03,NW,313,8.0,13.0,76,0.00,,BKN100,0.00,VWS V14.01,2013-03-13 16:05:00,
2013-03-13 12:10:00,21.4,14.7,30.04,NNW,333,11.0,17.0,75,0.00,,SCT100,0.00,VWS V14.01,2013-03-13 16:10:00,
2013-03-13 12:15:00,21.6,15.2,30.04,NNW,329,6.0,15.0,76,0.00,,SCT100,0.00,VWS V14.01,2013-03-13 16:15:00,
2013-03-13 12:20:00,21.8,14.8,30.04,NNW,346,13.0,19.0,74,0.00,,SCT100,0.00,VWS V14.01,2013-03-13 16:20:00,
2013-03-13 12:25:00,22.0,15.0,30.04,NW,322,10.0,12.0,74,0.00,,SCT100,0.00,VWS V14.01,2013-03-13 16:25:00,
2013-03-13 12:30:00,22.3,15.9,30.04,NW,325,8.0,14.0,76,0.00,,SCT100,0.00,VWS V14.01,2013-03-13 16:30:00,
2013-03-13 12:35:00,22.5,15.8,30.04,NNW,329,9.0,10.0,75,0.00,,SCT100,0.00,VWS V14.01,2013-03-13 16:35:00,
2013-03-13 12:40:00,22.8,15.8,30.05,North,350,8.0,12.0,74,0.00,,SCT100,0.00,VWS V14.01,2013-03-13 16:40:00,
2013-03-13 12:45:00,22.7,14.7,30.05,NNW,347,13.0,14.0,71,0.00,,SCT100,0.00,VWS V14.01,2013-03-13 16:45:00,
2013-03-13 12:50:00,23.3,15.9,30.05,NNW,348,9.0,16.0,73,0.00,,SCT100,0.00,VWS V14.01,2013-03-13 16:50:00,
2013-03-13 12:55:00,23.1,14.8,30.05,NW,311,8.0,13.0,70,0.00,,SCT100,0.00,VWS V14.01,2013-03-13 16:55:00,
2013-03-13 13:00:00,23.3,15.9,30.05,NNW,328,13.0,13.0,73,0.00,,SCT100,0.00,VWS V14.01,2013-03-13 17:00:00,
2013-03-13 13:05:00,23.6,15.3,30.05,North,357,7.0,12.0,70,0.00,,SCT100,0.00,VWS V14.01,2013-03-13 17:05:00,
2013-03-13 13:10:00,23.7,15.0,30.06,NW,314,8.0,17.0,69,0.00,,CLR,0.00,VWS V14.01,2013-03-13 17:10:00,
2013-03-13 13:15:00,23.5,14.8,30.06,North,352,7.0,10.0,69,0.00,,CLR,0.00,VWS V14.01,2013-03-13 17:15:00,
2013-03-13 13:20:00,23.9,14.9,30.06,NNW,345,12.0,12.0,68,0.00,,CLR,0.00,VWS V14.01,2013-03-13 17:20:00,
2013-03-13 13:25:00,24.2,15.5,30.06,WNW,288,9.0,10.0,69,0.00,,CLR,0.00,VWS V14.01,2013-03-13 17:25:00,
2013-03-13 13:30:00,24.4,15.0,30.06,North,357,11.0,16.0,67,0.00,,CLR,0.00,VWS V14.01,2013-03-13 17:30:00,
2013-03-13 13:35:00,24.8,15.1,30.06,North,7,10.0,14.0,66,0.00,,CLR,0.00,VWS V14.01,2013-03-13 17:35:00,
2013-03-13 13:40:00,25.5,16.4,30.06,North,2,17.0,17.0,68,0.00,,CLR,0.00,VWS V14.01,2013-03-13 17:40:00,
2013-03-13 13:45:00,25.5,15.7,30.06,NNE,17,12.0,14.0,66,0.00,,CLR,0.00,VWS V14.01,2013-03-13 17:45:00,
2013-03-13 13:50:00,25.4,14.6,30.06,NNW,345,10.0,13.0,63,0.00,,CLR,0.00,VWS V14.01,2013-03-13 17:50:00,
2013-03-13 13:55:00,26.0,16.2,30.06,NW,315,8.0,10.0,66,0.00,,CLR,0.00,VWS V14.01,2013-03-13 17:55:00,
2013-03-13 14:00:00,26.2,16.4,30.07,NNW,348,9.0,12.0,66,0.00,,CLR,0.00,VWS V14.01,2013-03-13 18:00:00,
2013-03-13 14:05:00,26.1,16.0,30.07,NW,317,12.0,14.0,65,0.00,,CLR,0.00,VWS V14.01,2013-03-13 18:05:00,
2013-03-13 14:10:00,26.3,14.7,30.07,NW,317,12.0,12.0,61,0.00,,CLR,0.00,VWS V14.01,2013-03-13 18:10:00,
2013-03-13 14:15:00,26.3,14.7,30.07,NW,325,9.0,16.0,61,0.00,,CLR,0.00,VWS V14.01,2013-03-13 18:15:00,
2013-03-13 14:20:00,26.7,16.2,30.07,NW,313,6.0,11.0,64,0.00,,CLR,0.00,VWS V14.01,2013-03-13 18:20:00,
2013-03-13 14:26:00,26.6,14.6,30.07,North,7,12.0,17.0,60,0.00,,CLR,0.00,VWS V14.01,2013-03-13 18:26:00,
2013-03-13 14:31:00,26.5,14.9,30.07,North,2,13.0,18.0,61,0.00,,CLR,0.00,VWS V14.01,2013-03-13 18:31:00,
2013-03-13 14:36:00,26.8,14.8,30.07,NW,326,10.0,20.0,60,0.00,,CLR,0.00,VWS V14.01,2013-03-13 18:36:00,
2013-03-13 14:41:00,26.5,13.7,30.07,NW,317,12.0,18.0,58,0.00,,CLR,0.00,VWS V14.01,2013-03-13 18:41:00,
2013-03-13 14:46:00,26.3,13.6,30.07,NNW,344,12.0,12.0,58,0.00,,CLR,0.00,VWS V14.01,2013-03-13 18:46:00,
2013-03-13 14:51:00,26.6,14.2,30.08,NW,313,9.0,16.0,59,0.00,,CLR,0.00,VWS V14.01,2013-03-13 18:51:00,
2013-03-13 14:56:00,26.5,12.9,30.08,NNW,346,15.0,19.0,56,0.00,,CLR,0.00,VWS V14.01,2013-03-13 18:56:00,
2013-03-13 15:01:00,26.4,13.6,30.08,North,7,17.0,22.0,58,0.00,,CLR,0.00,VWS V14.01,2013-03-13 19:01:00,
2013-03-13 15:06:00,26.3,13.9,30.08,North,2,8.0,8.0,59,0.00,,CLR,0.00,VWS V14.01,2013-03-13 19:06:00,
2013-03-13 15:11:00,26.5,14.5,30.08,North,7,7.0,11.0,60,0.00,,CLR,0.00,VWS V14.01,2013-03-13 19:11:00,
2013-03-13 15:16:00,26.6,14.6,30.08,NW,323,12.0,12.0,60,0.00,,CLR,0.00,VWS V14.01,2013-03-13 19:16:00,
2013-03-13 15:21:00,26.6,14.6,30.08,NNW,335,13.0,13.0,60,0.00,,CLR,0.00,VWS V14.01,2013-03-13 19:21:00,
2013-03-13 15:27:00,26.8,14.8,30.07,North,357,9.0,20.0,60,0.00,,CLR,0.00,VWS V14.01,2013-03-13 19:27:00,
2013-03-13 15:32:00,27.0,15.4,30.08,NW,323,12.0,17.0,61,0.00,,CLR,0.00,VWS V14.01,2013-03-13 19:32:00,
2013-03-13 15:37:00,27.2,15.9,30.08,NNW,348,10.0,13.0,62,0.00,,CLR,0.00,VWS V14.01,2013-03-13 19:37:00,
2013-03-13 15:42:00,27.5,15.4,30.08,NNW,329,8.0,13.0,60,0.00,,CLR,0.00,VWS V14.01,2013-03-13 19:42:00,
2013-03-13 15:47:00,27.9,16.2,30.08,NNW,334,9.0,15.0,61,0.00,,CLR,0.00,VWS V14.01,2013-03-13 19:47:00,
2013-03-13 15:52:00,28.0,14.8,30.08,NW,324,13.0,16.0,57,0.00,,CLR,0.00,VWS V14.01,2013-03-13 19:52:00,
2013-03-13 15:57:00,28.0,15.9,30.08,NW,317,10.0,12.0,60,0.00,,CLR,0.00,VWS V14.01,2013-03-13 19:57:00,
2013-03-13 16:02:00,27.9,15.4,30.08,NNW,345,8.0,15.0,59,0.00,,CLR,0.00,VWS V14.01,2013-03-13 20:02:00,
2013-03-13 16:07:00,28.0,15.1,30.08,NW,306,14.0,14.0,58,0.00,,CLR,0.00,VWS V14.01,2013-03-13 20:07:00,
2013-03-13 16:12:00,28.0,14.3,30.08,NNW,345,12.0,19.0,56,0.01,,CLR,0.01,VWS V14.01,2013-03-13 20:12:00,
2013-03-13 16:17:00,27.8,13.3,30.08,North,357,11.0,14.0,54,0.01,,CLR,0.01,VWS V14.01,2013-03-13 20:17:00,
2013-03-13 16:22:00,27.9,14.2,30.09,North,11,15.0,15.0,56,0.01,,CLR,0.01,VWS V14.01,2013-03-13 20:22:00,
2013-03-13 16:27:00,28.1,14.8,30.09,NNW,335,8.0,13.0,57,0.02,,CLR,0.02,VWS V14.01,2013-03-13 20:27:00,
2013-03-13 16:32:00,28.2,14.9,30.09,North,350,7.0,10.0,57,0.02,,CLR,0.02,VWS V14.01,2013-03-13 20:32:00,
2013-03-13 16:37:00,28.2,15.3,30.09,NNW,347,11.0,11.0,58,0.02,,CLR,0.02,VWS V14.01,2013-03-13 20:37:00,
2013-03-13 16:42:00,28.3,14.6,30.09,NNW,331,19.0,19.0,56,0.02,,CLR,0.02,VWS V14.01,2013-03-13 20:42:00,
2013-03-13 16:47:00,28.2,16.1,30.09,NNW,348,8.0,11.0,60,0.02,,CLR,0.02,VWS V14.01,2013-03-13 20:47:00,
2013-03-13 16:52:00,28.0,16.3,30.09,NW,323,11.0,12.0,61,0.02,,CLR,0.02,VWS V14.01,2013-03-13 20:52:00,
2013-03-13 16:57:00,28.0,17.4,30.09,NNW,335,10.0,14.0,64,0.02,,CLR,0.02,VWS V14.01,2013-03-13 20:57:00,
2013-03-13 17:02:00,27.9,16.6,30.09,WNW,288,6.0,16.0,62,0.02,,CLR,0.02,VWS V14.01,2013-03-13 21:02:00,
2013-03-13 17:07:00,27.8,16.5,30.09,NW,316,10.0,15.0,62,0.02,,CLR,0.02,VWS V14.01,2013-03-13 21:07:00,
2013-03-13 17:12:00,27.8,16.5,30.10,NNW,345,14.0,14.0,62,0.02,,CLR,0.02,VWS V14.01,2013-03-13 21:12:00,
2013-03-13 17:17:00,27.7,16.4,30.10,NW,313,11.0,17.0,62,0.02,,CLR,0.02,VWS V14.01,2013-03-13 21:17:00,
2013-03-13 17:22:00,27.5,15.1,30.10,WNW,284,13.0,17.0,59,0.02,,CLR,0.02,VWS V14.01,2013-03-13 21:22:00,
2013-03-13 17:27:00,27.3,15.6,30.10,West,276,8.0,9.0,61,0.02,,CLR,0.02,VWS V14.01,2013-03-13 21:27:00,
2013-03-13 17:32:00,27.2,14.8,30.10,NNW,335,11.0,15.0,59,0.00,,CLR,0.02,VWS V14.01,2013-03-13 21:32:00,
2013-03-13 17:37:00,27.1,15.1,30.11,NNW,328,5.0,12.0,60,0.00,,CLR,0.02,VWS V14.01,2013-03-13 21:37:00,
2013-03-13 17:42:00,27.2,14.0,30.10,North,353,8.0,12.0,57,0.00,,CLR,0.02,VWS V14.01,2013-03-13 21:42:00,
2013-03-13 17:47:00,27.3,14.9,30.11,NW,321,9.0,9.0,59,0.00,,CLR,0.02,VWS V14.01,2013-03-13 21:47:00,
2013-03-13 17:52:00,27.5,15.1,30.11,NW,317,9.0,13.0,59,0.00,,CLR,0.02,VWS V14.01,2013-03-13 21:52:00,
2013-03-13 17:57:00,27.5,15.1,30.11,NNW,346,13.0,13.0,59,0.00,,CLR,0.02,VWS V14.01,2013-03-13 21:57:00,
2013-03-13 18:02:00,27.4,15.4,30.11,NW,325,12.0,15.0,60,0.00,,CLR,0.02,VWS V14.01,2013-03-13 22:02:00,
2013-03-13 18:07:00,27.3,15.6,30.12,North,2,7.0,10.0,61,0.00,,CLR,0.02,VWS V14.01,2013-03-13 22:07:00,
2013-03-13 18:13:00,27.2,15.2,30.12,NW,322,15.0,15.0,60,0.00,,CLR,0.02,VWS V14.01,2013-03-13 22:13:00,
2013-03-13 18:18:00,27.2,14.8,30.12,NNW,338,11.0,19.0,59,0.00,,CLR,0.02,VWS V14.01,2013-03-13 22:18:00,
2013-03-13 18:23:00,27.3,15.6,30.12,NW,313,9.0,12.0,61,0.00,,CLR,0.02,VWS V14.01,2013-03-13 22:23:00,
2013-03-13 18:28:00,27.2,14.8,30.12,NNW,343,9.0,11.0,59,0.00,,CLR,0.02,VWS V14.01,2013-03-13 22:28:00,
2013-03-13 18:33:00,27.0,15.0,30.13,NW,325,9.0,12.0,60,0.00,,CLR,0.02,VWS V14.01,2013-03-13 22:33:00,
2013-03-13 18:38:00,26.9,15.3,30.13,NNW,335,6.0,6.0,61,0.00,,CLR,0.02,VWS V14.01,2013-03-13 22:38:00,
2013-03-13 18:43:00,26.9,15.3,30.13,NW,321,6.0,13.0,61,0.00,,CLR,0.02,VWS V14.01,2013-03-13 22:43:00,
2013-03-13 18:48:00,27.1,15.4,30.13,NNW,340,12.0,12.0,61,0.00,,CLR,0.02,VWS V14.01,2013-03-13 22:48:00,
2013-03-13 18:53:00,27.1,15.1,30.13,North,357,6.0,10.0,60,0.00,,CLR,0.02,VWS V14.01,2013-03-13 22:53:00,
2013-03-13 18:58:00,27.1,15.4,30.13,North,352,6.0,11.0,61,0.00,,CLR,0.02,VWS V14.01,2013-03-13 22:58:00,
2013-03-13 19:03:00,27.0,15.7,30.14,North,349,11.0,16.0,62,0.00,,CLR,0.02,VWS V14.01,2013-03-13 23:03:00,
2013-03-13 19:08:00,26.6,16.1,30.14,North,357,5.0,8.0,64,0.00,,CLR,0.02,VWS V14.01,2013-03-13 23:08:00,
2013-03-13 19:13:00,26.2,15.7,30.14,NNW,337,9.0,10.0,64,0.00,,CLR,0.02,VWS V14.01,2013-03-13 23:13:00,
2013-03-13 19:18:00,26.0,16.2,30.14,NW,320,4.0,8.0,66,0.00,,CLR,0.02,VWS V14.01,2013-03-13 23:18:00,
2013-03-13 19:23:00,25.8,16.0,30.14,NNW,333,9.0,10.0,66,0.00,,CLR,0.02,VWS V14.01,2013-03-13 23:23:00,
2013-03-13 19:28:00,25.7,15.9,30.14,NNW,333,11.0,11.0,66,0.00,,CLR,0.02,VWS V14.01,2013-03-13 23:28:00,
2013-03-13 19:33:00,25.4,15.6,30.15,NNW,328,6.0,10.0,66,0.00,,CLR,0.02,VWS V14.01,2013-03-13 23:33:00,
2013-03-13 19:38:00,25.2,15.8,30.15,NW,319,7.0,9.0,67,0.00,,CLR,0.02,VWS V14.01,2013-03-13 23:38:00,
2013-03-13 19:43:00,25.2,16.5,30.15,WNW,300,7.0,8.0,69,0.00,,CLR,0.02,VWS V14.01,2013-03-13 23:43:00,
2013-03-13 19:48:00,25.0,16.6,30.15,NNW,333,11.0,11.0,70,0.00,,CLR,0.02,VWS V14.01,2013-03-13 23:48:00,
2013-03-13 19:53:00,24.9,16.5,30.16,NW,325,9.0,14.0,70,0.00,,CLR,0.02,VWS V14.01,2013-03-13 23:53:00,
2013-03-13 19:58:00,24.8,16.4,30.16,North,2,7.0,13.0,70,0.00,,CLR,0.02,VWS V14.01,2013-03-13 23:58:00,
2013-03-13 20:03:00,24.8,16.4,30.16,NNW,327,8.0,11.0,70,0.00,,CLR,0.02,VWS V14.01,2013-03-14 00:03:00,
2013-03-13 20:08:00,24.7,16.6,30.16,North,351,6.0,12.0,71,0.00,,CLR,0.02,VWS V14.01,2013-03-14 00:08:00,
2013-03-13 20:13:00,24.6,16.5,30.16,NW,323,10.0,14.0,71,0.00,,CLR,0.02,VWS V14.01,2013-03-14 00:13:00,
2013-03-13 20:19:00,24.5,16.8,30.17,NNW,338,9.0,10.0,72,0.00,,CLR,0.02,VWS V14.01,2013-03-14 00:19:00,
2013-03-13 20:24:00,24.4,16.7,30.17,NNW,330,6.0,14.0,72,0.00,,CLR,0.02,VWS V14.01,2013-03-14 00:24:00,
2013-03-13 20:29:00,24.3,16.6,30.17,NNW,336,13.0,13.0,72,0.00,,CLR,0.02,VWS V14.01,2013-03-14 00:29:00,
2013-03-13 20:34:00,24.3,16.9,30.17,NW,311,5.0,9.0,73,0.00,,CLR,0.02,VWS V14.01,2013-03-14 00:34:00,
2013-03-13 20:39:00,24.2,16.8,30.17,NNW,329,9.0,9.0,73,0.00,,CLR,0.02,VWS V14.01,2013-03-14 00:39:00,
2013-03-13 20:44:00,24.0,16.9,30.17,NW,324,10.0,10.0,74,0.00,,CLR,0.02,VWS V14.01,2013-03-14 00:44:00,
2013-03-13 20:49:00,23.9,17.1,30.18,NNW,331,10.0,11.0,75,0.00,,CLR,0.02,VWS V14.01,2013-03-14 00:49:00,
2013-03-13 20:54:00,23.8,17.4,30.18,NNW,342,6.0,8.0,76,0.00,,CLR,0.02,VWS V14.01,2013-03-14 00:54:00,
2013-03-13 20:59:00,23.9,17.5,30.18,West,281,7.0,11.0,76,0.00,,CLR,0.02,VWS V14.01,2013-03-14 00:59:00,
2013-03-13 21:04:00,23.9,17.5,30.18,NNW,335,10.0,17.0,76,0.00,,CLR,0.02,VWS V14.01,2013-03-14 01:04:00,
2013-03-13 21:09:00,24.0,17.5,30.18,NNW,334,8.0,13.0,76,0.00,,SCT037,0.02,VWS V14.01,2013-03-14 01:09:00,
2013-03-13 21:14:00,24.0,17.5,30.18,NNW,339,5.0,9.0,76,0.00,,SCT037,0.02,VWS V14.01,2013-03-14 01:14:00,
2013-03-13 21:19:00,24.0,17.5,30.18,NW,311,8.0,11.0,76,0.00,,SCT037,0.02,VWS V14.01,2013-03-14 01:19:00,
2013-03-13 21:24:00,24.0,17.5,30.18,NW,325,7.0,12.0,76,0.00,,SCT037,0.02,VWS V14.01,2013-03-14 01:24:00,
2013-03-13 21:29:00,24.1,17.6,30.18,North,357,8.0,9.0,76,0.00,,SCT037,0.02,VWS V14.01,2013-03-14 01:29:00,
2013-03-13 21:34:00,24.2,17.4,30.18,NNW,347,8.0,10.0,75,0.00,,SCT037,0.02,VWS V14.01,2013-03-14 01:34:00,
2013-03-13 21:39:00,24.3,17.5,30.18,NNW,329,8.0,11.0,75,0.00,,SCT037,0.02,VWS V14.01,2013-03-14 01:39:00,
2013-03-13 21:44:00,24.4,17.6,30.18,NNW,343,4.0,7.0,75,0.00,,SCT037,0.02,VWS V14.01,2013-03-14 01:44:00,
2013-03-13 21:49:00,24.4,17.9,30.19,NW,313,4.0,5.0,76,0.00,,SCT037,0.02,VWS V14.01,2013-03-14 01:49:00,
2013-03-13 21:54:00,24.5,18.0,30.19,NNW,330,3.0,8.0,76,0.00,,SCT037,0.02,VWS V14.01,2013-03-14 01:54:00,
2013-03-13 21:59:00,24.4,18.2,30.19,NNW,342,3.0,5.0,77,0.00,,SCT037,0.02,VWS V14.01,2013-03-14 01:59:00,
2013-03-13 22:04:00,24.4,18.8,30.19,NNW,335,7.0,9.0,79,0.00,,SCT037,0.02,VWS V14.01,2013-03-14 02:04:00,
2013-03-13 22:09:00,24.4,19.1,30.19,NNW,346,5.0,8.0,80,0.00,,OVC033,0.02,VWS V14.01,2013-03-14 02:09:00,
2013-03-13 22:14:00,24.5,19.5,30.19,NW,321,6.0,9.0,81,0.00,,OVC033,0.02,VWS V14.01,2013-03-14 02:14:00,
2013-03-13 22:19:00,24.5,19.8,30.19,NNW,330,7.0,10.0,82,0.00,,OVC033,0.02,VWS V14.01,2013-03-14 02:19:00,
2013-03-13 22:24:00,24.6,20.2,30.19,NW,323,5.0,9.0,83,0.00,,OVC033,0.02,VWS V14.01,2013-03-14 02:24:00,
2013-03-13 22:29:00,24.5,20.4,30.19,NNW,332,6.0,8.0,84,0.00,,OVC033,0.02,VWS V14.01,2013-03-14 02:29:00,
2013-03-13 22:34:00,24.5,20.6,30.19,NNW,347,12.0,15.0,85,0.00,,OVC033,0.02,VWS V14.01,2013-03-14 02:34:00,
2013-03-13 22:39:00,24.4,20.5,30.19,NNW,338,6.0,12.0,85,0.00,,OVC033,0.02,VWS V14.01,2013-03-14 02:39:00,
2013-03-13 22:44:00,24.3,20.5,30.20,NNW,343,12.0,12.0,85,0.00,,OVC033,0.02,VWS V14.01,2013-03-14 02:44:00,
2013-03-13 22:49:00,24.2,20.6,30.20,NNW,346,14.0,14.0,86,0.00,,OVC033,0.02,VWS V14.01,2013-03-14 02:49:00,
2013-03-13 22:54:00,24.1,20.2,30.19,NW,311,8.0,10.0,85,0.00,,OVC033,0.02,VWS V14.01,2013-03-14 02:54:00,
2013-03-13 22:59:00,24.0,20.1,30.20,WNW,286,6.0,7.0,85,0.00,,OVC033,0.02,VWS V14.01,2013-03-14 02:59:00,
2013-03-13 23:04:00,24.0,20.1,30.19,NW,315,9.0,13.0,85,0.00,,OVC033,0.02,VWS V14.01,2013-03-14 03:04:00,
2013-03-13 23:09:00,24.0,20.1,30.19,North,11,8.0,11.0,85,0.00,,OVC037,0.02,VWS V14.01,2013-03-14 03:09:00,
2013-03-13 23:14:00,24.1,20.2,30.19,WNW,294,8.0,11.0,85,0.00,,OVC037,0.02,VWS V14.01,2013-03-14 03:14:00,
2013-03-13 23:19:00,24.2,20.4,30.19,NW,304,7.0,7.0,85,0.00,,OVC037,0.02,VWS V14.01,2013-03-14 03:19:00,
2013-03-13 23:24:00,24.2,20.1,30.19,NNW,328,4.0,4.0,84,0.00,,OVC037,0.02,VWS V14.01,2013-03-14 03:24:00,
2013-03-13 23:29:00,24.1,20.2,30.19,NW,319,7.0,7.0,85,0.00,,OVC037,0.02,VWS V14.01,2013-03-14 03:29:00,
2013-03-13 23:34:00,24.2,20.4,30.19,NW,319,3.0,5.0,85,0.00,,OVC037,0.02,VWS V14.01,2013-03-14 03:34:00,
2013-03-13 23:39:00,24.2,20.4,30.19,North,349,10.0,10.0,85,0.00,,OVC037,0.02,VWS V14.01,2013-03-14 03:39:00,
2013-03-13 23:44:00,24.2,20.4,30.19,North,357,5.0,8.0,85,0.00,,OVC037,0.02,VWS V14.01,2013-03-14 03:44:00,
2013-03-13 23:49:00,24.3,20.5,30.19,NW,319,9.0,9.0,85,0.00,,OVC037,0.02,VWS V14.01,2013-03-14 03:49:00,
2013-03-13 23:54:00,24.4,20.3,30.19,NNW,343,5.0,8.0,84,0.00,,OVC037,0.02,VWS V14.01,2013-03-14 03:54:00,